Year,Month,Day,Hour,Minute,Value (Times are PST for temperature in C)
2010,05,22,00,00,8.60
2010,05,22,00,01,8.60
2010,05,22,00,02,8.50
2010,05,22,00,03,8.50
2010,05,22,00,04,8.50
2010,05,22,00,05,8.40
2010,05,22,00,06,8.40
2010,05,22,00,07,8.40
2010,05,22,00,08,8.30
2010,05,22,00,09,8.30
2010,05,22,00,10,8.30
2010,05,22,00,11,8.30
2010,05,22,00,12,8.20
2010,05,22,00,13,8.20
2010,05,22,00,14,8.20
2010,05,22,00,15,8.20
2010,05,22,00,16,8.20
2010,05,22,00,17,8.20
2010,05,22,00,18,8.20
2010,05,22,00,19,8.20
2010,05,22,00,20,8.10
2010,05,22,00,21,8.10
2010,05,22,00,22,8.00
2010,05,22,00,23,8.00
2010,05,22,00,24,8.00
2010,05,22,00,25,7.90
2010,05,22,00,26,7.90
2010,05,22,00,27,7.80
2010,05,22,00,28,7.80
2010,05,22,00,29,7.80
2010,05,22,00,30,7.80
2010,05,22,00,31,7.70
2010,05,22,00,32,7.70
2010,05,22,00,33,7.60
2010,05,22,00,34,7.60
2010,05,22,00,35,7.60
2010,05,22,00,36,7.60
2010,05,22,00,37,7.50
2010,05,22,00,38,7.50
2010,05,22,00,39,7.50
2010,05,22,00,40,7.40
2010,05,22,00,41,7.40
2010,05,22,00,42,7.40
2010,05,22,00,43,7.40
2010,05,22,00,44,7.40
2010,05,22,00,45,7.30
2010,05,22,00,46,7.30
2010,05,22,00,47,7.30
2010,05,22,00,48,7.30
2010,05,22,00,49,7.30
2010,05,22,00,50,7.30
2010,05,22,00,51,7.20
2010,05,22,00,52,7.20
2010,05,22,00,53,7.20
2010,05,22,00,54,7.20
2010,05,22,00,55,7.10
2010,05,22,00,56,7.10
2010,05,22,00,57,7.10
2010,05,22,00,58,7.10
2010,05,22,00,59,7.10
2010,05,22,01,00,7.00
2010,05,22,01,01,7.00
2010,05,22,01,02,7.00
2010,05,22,01,03,7.00
2010,05,22,01,04,7.00
2010,05,22,01,05,7.00
2010,05,22,01,06,7.00
2010,05,22,01,07,6.90
2010,05,22,01,08,6.90
2010,05,22,01,09,6.90
2010,05,22,01,10,6.90
2010,05,22,01,11,6.90
2010,05,22,01,12,6.90
2010,05,22,01,13,6.90
2010,05,22,01,14,6.90
2010,05,22,01,15,6.90
2010,05,22,01,16,6.80
2010,05,22,01,17,6.80
2010,05,22,01,18,6.80
2010,05,22,01,19,6.80
2010,05,22,01,20,6.80
2010,05,22,01,21,6.80
2010,05,22,01,22,6.80
2010,05,22,01,23,6.80
2010,05,22,01,24,6.80
2010,05,22,01,25,6.80
2010,05,22,01,26,6.80
2010,05,22,01,27,6.80
2010,05,22,01,28,6.80
2010,05,22,01,29,6.80
2010,05,22,01,30,6.80
2010,05,22,01,31,6.80
2010,05,22,01,32,6.80
2010,05,22,01,33,6.80
2010,05,22,01,34,6.80
2010,05,22,01,35,6.80
2010,05,22,01,36,6.80
2010,05,22,01,37,6.80
2010,05,22,01,38,6.80
2010,05,22,01,39,6.80
2010,05,22,01,40,6.80
2010,05,22,01,41,6.80
2010,05,22,01,42,6.80
2010,05,22,01,43,6.80
2010,05,22,01,44,6.80
2010,05,22,01,45,6.70
2010,05,22,01,46,6.70
2010,05,22,01,47,6.70
2010,05,22,01,48,6.70
2010,05,22,01,49,6.70
2010,05,22,01,50,6.70
2010,05,22,01,51,6.80
2010,05,22,01,52,6.80
2010,05,22,01,53,6.80
2010,05,22,01,54,6.80
2010,05,22,01,55,6.70
2010,05,22,01,56,6.70
2010,05,22,01,57,6.70
2010,05,22,01,58,6.70
2010,05,22,01,59,6.70
2010,05,22,02,00,6.70
2010,05,22,02,01,6.80
2010,05,22,02,02,6.80
2010,05,22,02,03,6.80
2010,05,22,02,04,6.80
2010,05,22,02,05,6.80
2010,05,22,02,06,6.80
2010,05,22,02,07,6.80
2010,05,22,02,08,6.80
2010,05,22,02,09,6.70
2010,05,22,02,10,6.70
2010,05,22,02,11,6.70
2010,05,22,02,12,6.70
2010,05,22,02,13,6.60
2010,05,22,02,14,6.60
2010,05,22,02,15,6.60
2010,05,22,02,16,6.60
2010,05,22,02,17,6.60
2010,05,22,02,18,6.50
2010,05,22,02,19,6.40
2010,05,22,02,20,6.40
2010,05,22,02,21,6.40
2010,05,22,02,22,6.40
2010,05,22,02,23,6.40
2010,05,22,02,24,6.40
2010,05,22,02,25,6.30
2010,05,22,02,26,6.30
2010,05,22,02,27,6.30
2010,05,22,02,28,6.30
2010,05,22,02,29,6.20
2010,05,22,02,30,6.20
2010,05,22,02,31,6.20
2010,05,22,02,32,6.20
2010,05,22,02,33,6.20
2010,05,22,02,34,6.10
2010,05,22,02,35,6.10
2010,05,22,02,36,6.10
2010,05,22,02,37,6.10
2010,05,22,02,38,6.00
2010,05,22,02,39,6.00
2010,05,22,02,40,6.00
2010,05,22,02,41,5.90
2010,05,22,02,42,5.90
2010,05,22,02,43,5.90
2010,05,22,02,44,5.90
2010,05,22,02,45,5.80
2010,05,22,02,46,5.80
2010,05,22,02,47,5.80
2010,05,22,02,48,5.80
2010,05,22,02,49,5.70
2010,05,22,02,50,5.70
2010,05,22,02,51,5.70
2010,05,22,02,52,5.70
2010,05,22,02,53,5.70
2010,05,22,02,54,5.70
2010,05,22,02,55,5.70
2010,05,22,02,56,5.70
2010,05,22,02,57,5.70
2010,05,22,02,58,5.70
2010,05,22,02,59,5.70
2010,05,22,03,00,5.70
2010,05,22,03,01,5.70
2010,05,22,03,02,5.70
2010,05,22,03,03,5.70
2010,05,22,03,04,5.70
2010,05,22,03,05,5.70
2010,05,22,03,06,5.70
2010,05,22,03,07,5.70
2010,05,22,03,08,5.70
2010,05,22,03,09,5.70
2010,05,22,03,10,5.70
2010,05,22,03,11,5.70
2010,05,22,03,12,5.80
2010,05,22,03,13,5.80
2010,05,22,03,14,5.90
2010,05,22,03,15,5.90
2010,05,22,03,16,5.90
2010,05,22,03,17,5.90
2010,05,22,03,18,6.00
2010,05,22,03,19,6.00
2010,05,22,03,20,6.00
2010,05,22,03,21,6.00
2010,05,22,03,22,6.00
2010,05,22,03,23,6.00
2010,05,22,03,24,6.10
2010,05,22,03,25,6.10
2010,05,22,03,26,6.10
2010,05,22,03,27,6.10
2010,05,22,03,28,6.10
2010,05,22,03,29,6.10
2010,05,22,03,30,6.10
2010,05,22,03,31,6.10
2010,05,22,03,32,6.10
2010,05,22,03,33,6.10
2010,05,22,03,34,6.10
2010,05,22,03,35,6.10
2010,05,22,03,36,6.10
2010,05,22,03,37,6.10
2010,05,22,03,38,6.10
2010,05,22,03,39,6.10
2010,05,22,03,40,6.10
2010,05,22,03,41,6.10
2010,05,22,03,42,6.00
2010,05,22,03,43,6.00
2010,05,22,03,44,6.00
2010,05,22,03,45,6.00
2010,05,22,03,46,6.00
2010,05,22,03,47,6.00
2010,05,22,03,48,6.10
2010,05,22,03,49,6.10
2010,05,22,03,50,6.10
2010,05,22,03,51,6.10
2010,05,22,03,52,6.10
2010,05,22,03,53,6.10
2010,05,22,03,54,6.10
2010,05,22,03,55,6.10
2010,05,22,03,56,6.10
2010,05,22,03,57,6.10
2010,05,22,03,58,6.10
2010,05,22,03,59,6.10
2010,05,22,04,00,6.10
2010,05,22,04,01,6.10
2010,05,22,04,02,6.10
2010,05,22,04,03,6.10
2010,05,22,04,04,6.10
2010,05,22,04,05,6.10
2010,05,22,04,06,6.10
2010,05,22,04,07,6.20
2010,05,22,04,08,6.20
2010,05,22,04,09,6.20
2010,05,22,04,10,6.20
2010,05,22,04,11,6.20
2010,05,22,04,12,6.20
2010,05,22,04,13,6.20
2010,05,22,04,14,6.20
2010,05,22,04,15,6.20
2010,05,22,04,16,6.20
2010,05,22,04,17,6.20
2010,05,22,04,18,6.20
2010,05,22,04,19,6.20
2010,05,22,04,20,6.20
2010,05,22,04,21,6.20
2010,05,22,04,22,6.20
2010,05,22,04,23,6.30
2010,05,22,04,24,6.30
2010,05,22,04,25,6.30
2010,05,22,04,26,6.30
2010,05,22,04,27,6.30
2010,05,22,04,28,6.40
2010,05,22,04,29,6.40
2010,05,22,04,30,6.40
2010,05,22,04,31,6.40
2010,05,22,04,32,6.40
2010,05,22,04,33,6.40
2010,05,22,04,34,6.40
2010,05,22,04,35,6.40
2010,05,22,04,36,6.40
2010,05,22,04,37,6.40
2010,05,22,04,38,6.40
2010,05,22,04,39,6.40
2010,05,22,04,40,6.40
2010,05,22,04,41,6.40
2010,05,22,04,42,6.50
2010,05,22,04,43,6.60
2010,05,22,04,44,6.60
2010,05,22,04,45,6.60
2010,05,22,04,46,6.60
2010,05,22,04,47,6.60
2010,05,22,04,48,6.60
2010,05,22,04,49,6.60
2010,05,22,04,50,6.60
2010,05,22,04,51,6.60
2010,05,22,04,52,6.60
2010,05,22,04,53,6.60
2010,05,22,04,54,6.60
2010,05,22,04,55,6.60
2010,05,22,04,56,6.60
2010,05,22,04,57,6.60
2010,05,22,04,58,6.60
2010,05,22,04,59,6.60
2010,05,22,05,00,6.60
2010,05,22,05,01,6.60
2010,05,22,05,02,6.60
2010,05,22,05,03,6.60
2010,05,22,05,04,6.60
2010,05,22,05,05,6.50
2010,05,22,05,06,6.40
2010,05,22,05,07,6.40
2010,05,22,05,08,6.40
2010,05,22,05,09,6.40
2010,05,22,05,10,6.40
2010,05,22,05,11,6.40
2010,05,22,05,12,6.50
2010,05,22,05,13,6.60
2010,05,22,05,14,6.60
2010,05,22,05,15,6.60
2010,05,22,05,16,6.60
2010,05,22,05,17,6.60
2010,05,22,05,18,6.60
2010,05,22,05,19,6.60
2010,05,22,05,20,6.60
2010,05,22,05,21,6.60
2010,05,22,05,22,6.60
2010,05,22,05,23,6.60
2010,05,22,05,24,6.60
2010,05,22,05,25,6.60
2010,05,22,05,26,6.60
2010,05,22,05,27,6.60
2010,05,22,05,28,6.60
2010,05,22,05,29,6.60
2010,05,22,05,30,6.60
2010,05,22,05,31,6.60
2010,05,22,05,32,6.60
2010,05,22,05,33,6.60
2010,05,22,05,34,6.60
2010,05,22,05,35,6.60
2010,05,22,05,36,6.60
2010,05,22,05,37,6.60
2010,05,22,05,38,6.60
2010,05,22,05,39,6.60
2010,05,22,05,40,6.60
2010,05,22,05,41,6.60
2010,05,22,05,42,6.60
2010,05,22,05,43,6.60
2010,05,22,05,44,6.60
2010,05,22,05,45,6.60
2010,05,22,05,46,6.60
2010,05,22,05,47,6.60
2010,05,22,05,48,6.60
2010,05,22,05,49,6.60
2010,05,22,05,50,6.60
2010,05,22,05,51,6.60
2010,05,22,05,52,6.60
2010,05,22,05,53,6.60
2010,05,22,05,54,6.60
2010,05,22,05,55,6.60
2010,05,22,05,56,6.60
2010,05,22,05,57,6.60
2010,05,22,05,58,6.60
2010,05,22,05,59,6.60
2010,05,22,06,00,6.60
2010,05,22,06,01,6.60
2010,05,22,06,02,6.60
2010,05,22,06,03,6.70
2010,05,22,06,04,6.70
2010,05,22,06,05,6.70
2010,05,22,06,06,6.70
2010,05,22,06,07,6.70
2010,05,22,06,08,6.70
2010,05,22,06,09,6.70
2010,05,22,06,10,6.70
2010,05,22,06,11,6.70
2010,05,22,06,12,6.70
2010,05,22,06,13,6.70
2010,05,22,06,14,6.70
2010,05,22,06,15,6.70
2010,05,22,06,16,6.70
2010,05,22,06,17,6.70
2010,05,22,06,18,6.70
2010,05,22,06,19,6.70
2010,05,22,06,20,6.70
2010,05,22,06,21,6.70
2010,05,22,06,22,6.70
2010,05,22,06,23,6.70
2010,05,22,06,24,6.70
2010,05,22,06,25,6.70
2010,05,22,06,26,6.70
2010,05,22,06,27,6.70
2010,05,22,06,28,6.70
2010,05,22,06,29,6.70
2010,05,22,06,30,6.70
2010,05,22,06,31,6.70
2010,05,22,06,32,6.70
2010,05,22,06,33,6.70
2010,05,22,06,34,6.70
2010,05,22,06,35,6.70
2010,05,22,06,36,6.70
2010,05,22,06,37,6.70
2010,05,22,06,38,6.70
2010,05,22,06,39,6.60
2010,05,22,06,40,6.60
2010,05,22,06,41,6.60
2010,05,22,06,42,6.60
2010,05,22,06,43,6.60
2010,05,22,06,44,6.60
2010,05,22,06,45,6.60
2010,05,22,06,46,6.60
2010,05,22,06,47,6.60
2010,05,22,06,48,6.60
2010,05,22,06,49,6.60
2010,05,22,06,50,6.60
2010,05,22,06,51,6.60
2010,05,22,06,52,6.60
2010,05,22,06,53,6.60
2010,05,22,06,54,6.60
2010,05,22,06,55,6.60
2010,05,22,06,56,6.60
2010,05,22,06,57,6.60
2010,05,22,06,58,6.60
2010,05,22,06,59,6.60
2010,05,22,07,00,6.70
2010,05,22,07,01,6.70
2010,05,22,07,02,6.70
2010,05,22,07,03,6.70
2010,05,22,07,04,6.70
2010,05,22,07,05,6.70
2010,05,22,07,06,6.70
2010,05,22,07,07,6.70
2010,05,22,07,08,6.80
2010,05,22,07,09,6.80
2010,05,22,07,10,6.80
2010,05,22,07,11,6.90
2010,05,22,07,12,7.00
2010,05,22,07,13,7.10
2010,05,22,07,14,7.20
2010,05,22,07,15,7.30
2010,05,22,07,16,7.40
2010,05,22,07,17,7.40
2010,05,22,07,18,7.50
2010,05,22,07,19,7.60
2010,05,22,07,20,7.70
2010,05,22,07,21,7.70
2010,05,22,07,22,7.80
2010,05,22,07,23,7.80
2010,05,22,07,24,7.90
2010,05,22,07,25,8.00
2010,05,22,07,26,8.10
2010,05,22,07,27,8.10
2010,05,22,07,28,8.20
2010,05,22,07,29,8.20
2010,05,22,07,30,8.30
2010,05,22,07,31,8.30
2010,05,22,07,32,8.40
2010,05,22,07,33,8.40
2010,05,22,07,34,8.50
2010,05,22,07,35,8.50
2010,05,22,07,36,8.60
2010,05,22,07,37,8.60
2010,05,22,07,38,8.70
2010,05,22,07,39,8.70
2010,05,22,07,40,8.70
2010,05,22,07,41,8.80
2010,05,22,07,42,8.80
2010,05,22,07,43,8.90
2010,05,22,07,44,8.90
2010,05,22,07,45,8.90
2010,05,22,07,46,9.00
2010,05,22,07,47,9.00
2010,05,22,07,48,9.10
2010,05,22,07,49,9.10
2010,05,22,07,50,9.20
2010,05,22,07,51,9.20
2010,05,22,07,52,9.20
2010,05,22,07,53,9.20
2010,05,22,07,54,9.10
2010,05,22,07,55,9.00
2010,05,22,07,56,9.00
2010,05,22,07,57,8.90
2010,05,22,07,58,8.80
2010,05,22,07,59,8.80
2010,05,22,08,00,8.70
2010,05,22,08,01,8.70
2010,05,22,08,02,8.70
2010,05,22,08,03,8.80
2010,05,22,08,04,8.80
2010,05,22,08,05,8.80
2010,05,22,08,06,8.80
2010,05,22,08,07,8.90
2010,05,22,08,08,9.00
2010,05,22,08,09,9.10
2010,05,22,08,10,9.20
2010,05,22,08,11,9.20
2010,05,22,08,12,9.30
2010,05,22,08,13,9.30
2010,05,22,08,14,9.30
2010,05,22,08,15,9.40
2010,05,22,08,16,9.50
2010,05,22,08,17,9.50
2010,05,22,08,18,9.60
2010,05,22,08,19,9.70
2010,05,22,08,20,9.70
2010,05,22,08,21,9.70
2010,05,22,08,22,9.60
2010,05,22,08,23,9.50
2010,05,22,08,24,9.40
2010,05,22,08,25,9.40
2010,05,22,08,26,9.40
2010,05,22,08,27,9.40
2010,05,22,08,28,9.40
2010,05,22,08,29,9.30
2010,05,22,08,30,9.30
2010,05,22,08,31,9.40
2010,05,22,08,32,9.30
2010,05,22,08,33,9.40
2010,05,22,08,34,9.50
2010,05,22,08,35,9.50
2010,05,22,08,36,9.50
2010,05,22,08,37,9.50
2010,05,22,08,38,9.70
2010,05,22,08,39,9.70
2010,05,22,08,40,9.70
2010,05,22,08,41,9.70
2010,05,22,08,42,9.80
2010,05,22,08,43,9.80
2010,05,22,08,44,9.90
2010,05,22,08,45,9.80
2010,05,22,08,46,9.80
2010,05,22,08,47,9.80
2010,05,22,08,48,9.90
2010,05,22,08,49,9.90
2010,05,22,08,50,10.00
2010,05,22,08,51,10.10
2010,05,22,08,52,10.10
2010,05,22,08,53,10.10
2010,05,22,08,54,10.10
2010,05,22,08,55,10.00
2010,05,22,08,56,9.90
2010,05,22,08,57,9.90
2010,05,22,08,58,9.80
2010,05,22,08,59,9.80
2010,05,22,09,00,9.80
2010,05,22,09,01,9.80
2010,05,22,09,02,9.90
2010,05,22,09,03,9.80
2010,05,22,09,04,9.80
2010,05,22,09,05,9.70
2010,05,22,09,06,9.80
2010,05,22,09,07,9.90
2010,05,22,09,08,10.00
2010,05,22,09,09,10.10
2010,05,22,09,10,10.10
2010,05,22,09,11,10.10
2010,05,22,09,12,10.20
2010,05,22,09,13,10.20
2010,05,22,09,14,10.20
2010,05,22,09,15,10.20
2010,05,22,09,16,10.30
2010,05,22,09,17,10.30
2010,05,22,09,18,10.30
2010,05,22,09,19,10.30
2010,05,22,09,20,10.20
2010,05,22,09,21,10.10
2010,05,22,09,22,10.00
2010,05,22,09,23,9.90
2010,05,22,09,24,10.00
2010,05,22,09,25,10.10
2010,05,22,09,26,10.20
2010,05,22,09,27,10.20
2010,05,22,09,28,10.10
2010,05,22,09,29,10.20
2010,05,22,09,30,10.30
2010,05,22,09,31,10.50
2010,05,22,09,32,10.60
2010,05,22,09,33,10.40
2010,05,22,09,34,10.30
2010,05,22,09,35,10.20
2010,05,22,09,36,10.30
2010,05,22,09,37,10.30
2010,05,22,09,38,10.40
2010,05,22,09,39,10.20
2010,05,22,09,40,10.20
2010,05,22,09,41,10.40
2010,05,22,09,42,10.40
2010,05,22,09,43,10.40
2010,05,22,09,44,10.50
2010,05,22,09,45,10.60
2010,05,22,09,46,10.60
2010,05,22,09,47,10.40
2010,05,22,09,48,10.50
2010,05,22,09,49,10.50
2010,05,22,09,50,10.50
2010,05,22,09,51,10.70
2010,05,22,09,52,10.80
2010,05,22,09,53,10.90
2010,05,22,09,54,10.90
2010,05,22,09,55,10.80
2010,05,22,09,56,10.70
2010,05,22,09,57,10.60
2010,05,22,09,58,10.50
2010,05,22,09,59,10.30
2010,05,22,10,00,10.40
2010,05,22,10,01,10.30
2010,05,22,10,02,10.20
2010,05,22,10,03,10.20
2010,05,22,10,04,10.20
2010,05,22,10,05,10.40
2010,05,22,10,06,10.60
2010,05,22,10,07,10.80
2010,05,22,10,08,10.90
2010,05,22,10,09,11.00
2010,05,22,10,10,11.00
2010,05,22,10,11,10.90
2010,05,22,10,12,11.00
2010,05,22,10,13,11.10
2010,05,22,10,14,11.00
2010,05,22,10,15,10.90
2010,05,22,10,16,10.80
2010,05,22,10,17,10.70
2010,05,22,10,18,10.80
2010,05,22,10,19,10.90
2010,05,22,10,20,10.90
2010,05,22,10,21,11.00
2010,05,22,10,22,11.10
2010,05,22,10,23,11.10
2010,05,22,10,24,11.20
2010,05,22,10,25,11.40
2010,05,22,10,26,11.50
2010,05,22,10,27,11.50
2010,05,22,10,28,11.30
2010,05,22,10,29,11.20
2010,05,22,10,30,11.20
2010,05,22,10,31,11.20
2010,05,22,10,32,11.40
2010,05,22,10,33,11.40
2010,05,22,10,34,11.40
2010,05,22,10,35,11.30
2010,05,22,10,36,11.30
2010,05,22,10,37,11.30
2010,05,22,10,38,11.30
2010,05,22,10,39,11.30
2010,05,22,10,40,11.30
2010,05,22,10,41,11.20
2010,05,22,10,42,11.10
2010,05,22,10,43,11.10
2010,05,22,10,44,11.00
2010,05,22,10,45,10.90
2010,05,22,10,46,10.90
2010,05,22,10,47,10.90
2010,05,22,10,48,10.90
2010,05,22,10,49,10.90
2010,05,22,10,50,11.10
2010,05,22,10,51,11.10
2010,05,22,10,52,11.20
2010,05,22,10,53,11.40
2010,05,22,10,54,11.40
2010,05,22,10,55,11.40
2010,05,22,10,56,11.40
2010,05,22,10,57,11.60
2010,05,22,10,58,11.60
2010,05,22,10,59,11.50
2010,05,22,11,00,11.50
2010,05,22,11,01,11.50
2010,05,22,11,02,11.60
2010,05,22,11,03,11.60
2010,05,22,11,04,11.60
2010,05,22,11,05,11.70
2010,05,22,11,06,11.70
2010,05,22,11,07,11.80
2010,05,22,11,08,11.80
2010,05,22,11,09,11.80
2010,05,22,11,10,11.90
2010,05,22,11,11,11.90
2010,05,22,11,12,11.90
2010,05,22,11,13,11.80
2010,05,22,11,14,11.80
2010,05,22,11,15,11.80
2010,05,22,11,16,11.60
2010,05,22,11,17,11.60
2010,05,22,11,18,11.50
2010,05,22,11,19,11.40
2010,05,22,11,20,11.40
2010,05,22,11,21,11.40
2010,05,22,11,22,11.40
2010,05,22,11,23,11.40
2010,05,22,11,24,11.40
2010,05,22,11,25,11.50
2010,05,22,11,26,11.60
2010,05,22,11,27,11.70
2010,05,22,11,28,11.70
2010,05,22,11,29,11.70
2010,05,22,11,30,11.60
2010,05,22,11,31,11.60
2010,05,22,11,32,11.60
2010,05,22,11,33,11.60
2010,05,22,11,34,11.60
2010,05,22,11,35,11.70
2010,05,22,11,36,11.80
2010,05,22,11,37,11.80
2010,05,22,11,38,11.80
2010,05,22,11,39,11.80
2010,05,22,11,40,11.80
2010,05,22,11,41,11.90
2010,05,22,11,42,12.00
2010,05,22,11,43,12.20
2010,05,22,11,44,12.20
2010,05,22,11,45,12.20
2010,05,22,11,46,12.20
2010,05,22,11,47,12.20
2010,05,22,11,48,12.30
2010,05,22,11,49,12.40
2010,05,22,11,50,12.40
2010,05,22,11,51,12.40
2010,05,22,11,52,12.30
2010,05,22,11,53,12.30
2010,05,22,11,54,12.30
2010,05,22,11,55,12.30
2010,05,22,11,56,12.40
2010,05,22,11,57,12.60
2010,05,22,11,58,12.80
2010,05,22,11,59,12.90
2010,05,22,12,00,13.00
2010,05,22,12,01,13.20
2010,05,22,12,02,13.30
2010,05,22,12,03,13.40
2010,05,22,12,04,13.60
2010,05,22,12,05,13.80
2010,05,22,12,06,14.00
2010,05,22,12,07,14.20
2010,05,22,12,08,14.40
2010,05,22,12,09,14.50
2010,05,22,12,10,14.60
2010,05,22,12,11,14.80
2010,05,22,12,12,14.80
2010,05,22,12,13,14.80
2010,05,22,12,14,14.80
2010,05,22,12,15,14.80
2010,05,22,12,16,14.80
2010,05,22,12,17,14.90
2010,05,22,12,18,14.90
2010,05,22,12,19,14.80
2010,05,22,12,20,14.80
2010,05,22,12,21,14.80
2010,05,22,12,22,14.80
2010,05,22,12,23,14.80
2010,05,22,12,24,14.80
2010,05,22,12,25,14.70
2010,05,22,12,26,14.50
2010,05,22,12,27,14.40
2010,05,22,12,28,14.20
2010,05,22,12,29,14.20
2010,05,22,12,30,14.20
2010,05,22,12,31,14.20
2010,05,22,12,32,14.20
2010,05,22,12,33,14.20
2010,05,22,12,34,14.20
2010,05,22,12,35,14.20
2010,05,22,12,36,14.20
2010,05,22,12,37,14.20
2010,05,22,12,38,14.20
2010,05,22,12,39,14.10
2010,05,22,12,40,14.10
2010,05,22,12,41,14.10
2010,05,22,12,42,14.10
2010,05,22,12,43,14.10
2010,05,22,12,44,14.10
2010,05,22,12,45,14.20
2010,05,22,12,46,14.20
2010,05,22,12,47,14.30
2010,05,22,12,48,14.30
2010,05,22,12,49,14.40
2010,05,22,12,50,14.40
2010,05,22,12,51,14.40
2010,05,22,12,52,14.40
2010,05,22,12,53,14.40
2010,05,22,12,54,14.40
2010,05,22,12,55,14.50
2010,05,22,12,56,14.50
2010,05,22,12,57,14.40
2010,05,22,12,58,14.40
2010,05,22,12,59,14.40
2010,05,22,13,00,14.30
2010,05,22,13,01,14.30
2010,05,22,13,02,14.20
2010,05,22,13,03,14.00
2010,05,22,13,04,13.90
2010,05,22,13,05,13.70
2010,05,22,13,06,13.50
2010,05,22,13,07,13.30
2010,05,22,13,08,13.10
2010,05,22,13,09,13.00
2010,05,22,13,10,12.80
2010,05,22,13,11,12.80
2010,05,22,13,12,12.60
2010,05,22,13,13,12.50
2010,05,22,13,14,12.30
2010,05,22,13,15,12.20
2010,05,22,13,16,12.10
2010,05,22,13,17,12.00
2010,05,22,13,18,11.90
2010,05,22,13,19,11.80
2010,05,22,13,20,11.90
2010,05,22,13,21,11.90
2010,05,22,13,22,12.00
2010,05,22,13,23,12.00
2010,05,22,13,24,12.00
2010,05,22,13,25,12.00
2010,05,22,13,26,12.00
2010,05,22,13,27,11.90
2010,05,22,13,28,11.80
2010,05,22,13,29,11.80
2010,05,22,13,30,11.80
2010,05,22,13,31,11.80
2010,05,22,13,32,11.80
2010,05,22,13,33,11.80
2010,05,22,13,34,11.70
2010,05,22,13,35,11.60
2010,05,22,13,36,11.50
2010,05,22,13,37,11.40
2010,05,22,13,38,11.40
2010,05,22,13,39,11.40
2010,05,22,13,40,11.40
2010,05,22,13,41,11.40
2010,05,22,13,42,11.30
2010,05,22,13,43,11.30
2010,05,22,13,44,11.40
2010,05,22,13,45,11.40
2010,05,22,13,46,11.40
2010,05,22,13,47,11.40
2010,05,22,13,48,11.40
2010,05,22,13,49,11.50
2010,05,22,13,50,11.60
2010,05,22,13,51,11.60
2010,05,22,13,52,11.60
2010,05,22,13,53,11.70
2010,05,22,13,54,11.70
2010,05,22,13,55,11.70
2010,05,22,13,56,11.80
2010,05,22,13,57,11.80
2010,05,22,13,58,11.80
2010,05,22,13,59,11.80
2010,05,22,14,00,11.80
2010,05,22,14,01,11.70
2010,05,22,14,02,11.60
2010,05,22,14,03,11.70
2010,05,22,14,04,11.70
2010,05,22,14,05,11.70
2010,05,22,14,06,11.80
2010,05,22,14,07,11.80
2010,05,22,14,08,11.80
2010,05,22,14,09,11.80
2010,05,22,14,10,11.80
2010,05,22,14,11,11.80
2010,05,22,14,12,11.70
2010,05,22,14,13,11.70
2010,05,22,14,14,11.60
2010,05,22,14,15,11.60
2010,05,22,14,16,11.60
2010,05,22,14,17,11.60
2010,05,22,14,18,11.70
2010,05,22,14,19,11.70
2010,05,22,14,20,11.70
2010,05,22,14,21,11.70
2010,05,22,14,22,11.80
2010,05,22,14,23,11.80
2010,05,22,14,24,11.70
2010,05,22,14,25,11.60
2010,05,22,14,26,11.60
2010,05,22,14,27,11.60
2010,05,22,14,28,11.60
2010,05,22,14,29,11.50
2010,05,22,14,30,11.40
2010,05,22,14,31,11.40
2010,05,22,14,32,11.60
2010,05,22,14,33,11.60
2010,05,22,14,34,11.60
2010,05,22,14,35,11.70
2010,05,22,14,36,11.80
2010,05,22,14,37,11.90
2010,05,22,14,38,11.90
2010,05,22,14,39,11.90
2010,05,22,14,40,12.00
2010,05,22,14,41,12.00
2010,05,22,14,42,12.10
2010,05,22,14,43,12.10
2010,05,22,14,44,12.10
2010,05,22,14,45,12.10
2010,05,22,14,46,12.20
2010,05,22,14,47,12.30
2010,05,22,14,48,12.30
2010,05,22,14,49,12.30
2010,05,22,14,50,12.20
2010,05,22,14,51,12.20
2010,05,22,14,52,12.10
2010,05,22,14,53,12.20
2010,05,22,14,54,12.30
2010,05,22,14,55,12.20
2010,05,22,14,56,12.20
2010,05,22,14,57,12.20
2010,05,22,14,58,12.20
2010,05,22,14,59,12.30
2010,05,22,15,00,12.30
2010,05,22,15,01,12.30
2010,05,22,15,02,12.50
2010,05,22,15,03,12.50
2010,05,22,15,04,12.50
2010,05,22,15,05,12.50
2010,05,22,15,06,12.50
2010,05,22,15,07,12.40
2010,05,22,15,08,12.50
2010,05,22,15,09,12.40
2010,05,22,15,10,12.30
2010,05,22,15,11,12.30
2010,05,22,15,12,12.20
2010,05,22,15,13,12.10
2010,05,22,15,14,12.10
2010,05,22,15,15,12.10
2010,05,22,15,16,12.20
2010,05,22,15,17,12.20
2010,05,22,15,18,12.30
2010,05,22,15,19,12.30
2010,05,22,15,20,12.30
2010,05,22,15,21,12.30
2010,05,22,15,22,12.30
2010,05,22,15,23,12.30
2010,05,22,15,24,12.30
2010,05,22,15,25,12.30
2010,05,22,15,26,12.30
2010,05,22,15,27,12.30
2010,05,22,15,28,12.30
2010,05,22,15,29,12.30
2010,05,22,15,30,12.30
2010,05,22,15,31,12.30
2010,05,22,15,32,12.30
2010,05,22,15,33,12.30
2010,05,22,15,34,12.30
2010,05,22,15,35,12.30
2010,05,22,15,36,12.30
2010,05,22,15,37,12.30
2010,05,22,15,38,12.30
2010,05,22,15,39,12.20
2010,05,22,15,40,12.10
2010,05,22,15,41,12.20
2010,05,22,15,42,12.20
2010,05,22,15,43,12.20
2010,05,22,15,44,12.20
2010,05,22,15,45,12.20
2010,05,22,15,46,12.30
2010,05,22,15,47,12.30
2010,05,22,15,48,12.30
2010,05,22,15,49,12.30
2010,05,22,15,50,12.40
2010,05,22,15,51,12.40
2010,05,22,15,52,12.40
2010,05,22,15,53,12.50
2010,05,22,15,54,12.50
2010,05,22,15,55,12.60
2010,05,22,15,56,12.60
2010,05,22,15,57,12.60
2010,05,22,15,58,12.60
2010,05,22,15,59,12.60
2010,05,22,16,00,12.70
2010,05,22,16,01,12.70
2010,05,22,16,02,12.80
2010,05,22,16,03,12.80
2010,05,22,16,04,12.80
2010,05,22,16,05,12.90
2010,05,22,16,06,12.80
2010,05,22,16,07,12.60
2010,05,22,16,08,12.60
2010,05,22,16,09,12.60
2010,05,22,16,10,12.60
2010,05,22,16,11,12.60
2010,05,22,16,12,12.60
2010,05,22,16,13,12.60
2010,05,22,16,14,12.50
2010,05,22,16,15,12.50
2010,05,22,16,16,12.40
2010,05,22,16,17,12.40
2010,05,22,16,18,12.50
2010,05,22,16,19,12.50
2010,05,22,16,20,12.50
2010,05,22,16,21,12.40
2010,05,22,16,22,12.40
2010,05,22,16,23,12.40
2010,05,22,16,24,12.40
2010,05,22,16,25,12.40
2010,05,22,16,26,12.50
2010,05,22,16,27,12.50
2010,05,22,16,28,12.50
2010,05,22,16,29,12.50
2010,05,22,16,30,12.60
2010,05,22,16,31,12.50
2010,05,22,16,32,12.50
2010,05,22,16,33,12.50
2010,05,22,16,34,12.50
2010,05,22,16,35,12.40
2010,05,22,16,36,12.40
2010,05,22,16,37,12.50
2010,05,22,16,38,12.50
2010,05,22,16,39,12.50
2010,05,22,16,40,12.50
2010,05,22,16,41,12.50
2010,05,22,16,42,12.40
2010,05,22,16,43,12.30
2010,05,22,16,44,12.30
2010,05,22,16,45,12.30
2010,05,22,16,46,12.30
2010,05,22,16,47,12.30
2010,05,22,16,48,12.40
2010,05,22,16,49,12.50
2010,05,22,16,50,12.50
2010,05,22,16,51,12.60
2010,05,22,16,52,12.50
2010,05,22,16,53,12.60
2010,05,22,16,54,12.60
2010,05,22,16,55,12.70
2010,05,22,16,56,12.70
2010,05,22,16,57,12.70
2010,05,22,16,58,12.70
2010,05,22,16,59,12.70
2010,05,22,17,00,12.70
2010,05,22,17,01,12.70
2010,05,22,17,02,12.70
2010,05,22,17,03,12.70
2010,05,22,17,04,12.70
2010,05,22,17,05,12.70
2010,05,22,17,06,12.70
2010,05,22,17,07,12.70
2010,05,22,17,08,12.70
2010,05,22,17,09,12.60
2010,05,22,17,10,12.60
2010,05,22,17,11,12.60
2010,05,22,17,12,12.60
2010,05,22,17,13,12.60
2010,05,22,17,14,12.60
2010,05,22,17,15,12.70
2010,05,22,17,16,12.80
2010,05,22,17,17,12.80
2010,05,22,17,18,12.90
2010,05,22,17,19,12.90
2010,05,22,17,20,13.00
2010,05,22,17,21,13.00
2010,05,22,17,22,13.00
2010,05,22,17,23,12.90
2010,05,22,17,24,12.90
2010,05,22,17,25,12.90
2010,05,22,17,26,12.90
2010,05,22,17,27,12.90
2010,05,22,17,28,12.90
2010,05,22,17,29,12.80
2010,05,22,17,30,12.80
2010,05,22,17,31,12.80
2010,05,22,17,32,12.80
2010,05,22,17,33,12.90
2010,05,22,17,34,12.80
2010,05,22,17,35,12.80
2010,05,22,17,36,12.80
2010,05,22,17,37,12.80
2010,05,22,17,38,12.80
2010,05,22,17,39,12.80
2010,05,22,17,40,12.80
2010,05,22,17,41,12.70
2010,05,22,17,42,12.70
2010,05,22,17,43,12.70